Location: Gleizolles
(44.4833°N, 6.7667°E)
Time: 22:09:44
(UTC+00:00)

IRIDIUM 104 - Pass Details

Date: 09 April 2020
Orbit: 776 x 779 km, 86.4° (Epoch: 05 June)

Event Time Altitude Azimuth Distance (km) Brightness Sun altitude
Rises 18:38:54 0° 358° (N) 3,274 7.8 -5.7°
Reaches altitude 10° 18:41:16 10° 360° (N) 2,342 7.1 -6.1°
Maximum altitude 18:46:31 76° 86° (E) 806 4.3 -7.0°
Drops below altitude 10° 18:51:43 10° 173° (S) 2,323 6.5 -7.9°
Sets 18:54:03 0° 174° (S) 3,246 7.3 -8.3°
